Weather in Divonne-les-Bains

France     46°21′05″N   6°07′49″E
temp.,
°C
wind,
m/s
gust,
m/s
humid.,
%
clouds,
%
prec.,
mm/h
press.,
hPa
HPBL,
m
4 march, thu
thu401:00+6ssw227584 0.0 102763
04:00+5ssw237621 0.0 102670
07:00+4ssw237310 0.0 102568
10:00+9ssw23614 0.0 1023284
13:00+13sw34454 0.0 1021863
16:00+13ssw454965 0.0 1019992
19:00+9ssw236781 0.1 101989
22:00+8sw1274100 0.2 102082
5 march, fri
fri501:00+6ssw128182 0.3 102041
04:00+5ssw128513 0.1 101948
07:00+4ssw11879 0.1 102046
10:00+7nnw017687 0.1 1020259
13:00+10ne336271 0.1 1019912
16:00+10nne566743 0.3 10191042
19:00+6nne7117857 0.4 1021667
22:00+5nne7108231 0.0 1024687
6 march, sat
sat601:00+4nne7108566 0.0 1024554
04:00+2nne6985100 0.0 1025484
07:00+1nne578799 0.0 1026451
10:00+2ne468196 0.0 1026457
13:00+5ne447184 0.0 1026643
16:00+6ne346942 0.0 1025688
19:00+3ne348121 0.0 1026162
22:00+2nne12844 0.0 102794
7 march, sun
sun701:00+1nne01867 0.0 102787
04:00+1wnw018815 0.0 102689
07:00+2n018923 0.0 102675
10:00+6sw237617 0.0 1024412
13:00+10sw456322 0.2 10221142
16:00+10sw346420 0.7 1020976
19:00+6sw127813 1.1 102069
22:00+4wsw018418 0.1 102136
8 march, mon
mon801:00+4wsw118555 0.2 102168
04:00+5sw1185100 0.2 1020108
07:00+3sw1188100 0.3 102048
10:00+6ne1171100 0.0 1020573
13:00+8ne2260100 0.1 1019974
16:00+8n3361100 0.1 10171118
19:00+4nnw227887 0.3 1019120
22:00+4nne247973 0.2 1021362